Location: Monteux
(44.0348°N, 4.9972°E)
Time: 18:13:17
(UTC+00:00)

USA 281 - Pass Details

Date: 30 November 2020
Orbit: 1074 x 1084 km, 106.0° (Epoch: 08 January)

Event Time Altitude Azimuth Distance (km) Brightness Sun altitude
Rises 18:08:06 0° 147° (SSE) 3,870 5.9 -21.8°
Reaches altitude 10° 18:10:37 10° 146° (SE) 2,917 5.2 -22.3°
Maximum altitude 18:17:09 74° 62° (ENE) 1,123 3.1 -23.4°
Drops below altitude 10° 18:23:42 10° 339° (NNW) 2,926 5.6 -24.6°
Sets 18:26:13 0° 338° (NNW) 3,884 6.3 -25.0°
